Back to catalog

STARLINK-37215

AliveCommunicationsSSO
NORAD 68392·PAYLOAD·🇺🇸 United States

Launched Mar 26, 2026 from Vandenberg Space Force Base

Loading…

Next Passes (next 24 hours)

TLE

FreshSource: CelesTrak SupGP

Epoch: Sep 14, 2026, 21:09 UTC

1 68392C 26063N   26257.88173611  .00032432  00000+0  10067-2 0  2578
2 68392  97.2857  38.8102 0001000 104.0761  13.5488 15.33426130    18

Track STARLINK-37215 in real time with AllMySat

Download on the App Store